www.pogodaiklimat.ru

Погода и климат >> Архив погоды >> Финляндия >> Лаитала


ПОГОДА в Лаитале

  • Прогноз погоды в Лаитале
  • Монитор погоды в Лаитале

АРХИВ ПОГОДЫ в Лаитале

Время (UTC), дата Ветер
(напр.,м/с)
 
Видим.   Явления Облачность Т
(С)
Тd
(С)
f
(%)
Тe
(С)
Тes
(С)
Комфортность P
(гПа)
Po
(гПа)
Тmin
(С)
Tmax
(С)
R
(мм)
R24
(мм)
S
(см)
22 10.06 СЗ 4-7
{7}
н/о н/о +12.4 +7.6 73 +11 +11 1016.8 1006.6
23 10.06 СЗ 2 н/о н/о +9.7 +7.0 83 +8 +8 1017.8 1007.5
00 11.06 С 5-6
{6}
н/о н/о +8.9 +7.3 90 +5 +5 1018.9 1008.5
01 11.06 С 4-6
{6}
н/о н/о +8.5 +6.5 87 +5 +5 1020.0 1009.6
02 11.06 С 4-5
{7}
н/о н/о +7.8 +4.6 80 +5 +5 1020.9 1010.4
03 11.06 С 4-5
{6}
н/о н/о +8.1 +4.9 80 +5 +5 1021.7 1011.3
04 11.06 С 4 н/о н/о +8.5 +4.6 76 +5 +5 1022.2 1011.8
05 11.06 С 3-6
{7}
н/о н/о +8.7 +3.3 69 +6 +6 1023.1 1012.6
06 11.06 СЗ 4-6
{6}
н/о н/о +9.6 +3.9 68 +7 +7 1024.3 1013.9 +7.7 +16.9
07 11.06 С 5 н/о н/о +10.3 +3.3 62 +8 +8 1024.6 1014.2
08 11.06 С 6 н/о н/о +10.8 +3.0 59 +8 +8 1024.7 1014.3
09 11.06 С 6-9
{9}
н/о н/о +11.2 +1.9 53 +9 +9 1025.7 1015.4
10 11.06 СЗ 5-9
{9}
н/о н/о +10.6 +2.9 59 +8 +8 1026.3 1015.9
11 11.06 С 7 н/о н/о +10.2 +1.7 56 +7 +7 1026.6 1016.2
12 11.06 СЗ 6-9
{10}
н/о н/о +10.3 +1.5 54 +7 +7 1027.0 1016.6
13 11.06 СЗ 7 н/о н/о +9.9 +1.0 54 +7 +7 1027.2 1016.7
14 11.06 С 7-10
{12}
н/о н/о +9.9 -0.1 50 +7 +7 1027.6 1017.2
15 11.06 С 7-12
{13}
н/о н/о +9.7 -1.4 46 +6 +6 1028.0 1017.6
16 11.06 С 10 н/о н/о +9.3 -0.5 50 +5 +5 1028.1 1017.7
17 11.06 С 8 н/о н/о +9.0 +0.1 54 +5 +5 1028.1 1017.6
18 11.06 С 6-8
{11}
н/о н/о +7.6 +1.2 64 +4 +4 1028.5 1018.0 +7.6 +11.4
19 11.06 С 6-7
{9}
н/о н/о +6.8 +0.1 62 +3 +3 1028.9 1018.4
20 11.06 С 4 н/о н/о +4.9 +0.9 75 +1 +1 1029.4 1018.8
21 11.06 С 2-3
{5}
н/о н/о +3.2 +0.6 83 0 0 1029.9 1019.2
22 11.06 С 2-3
{3}
н/о н/о +1.8 +0.3 90 -2 -2 1030.4 1019.6
23 11.06 С 1-2
{3}
н/о н/о +1.2 +0.3 94 -1 -1 1030.5 1019.7
00 12.06 С 1-2
{2}
н/о н/о +0.5 0.0 96 -2 -2 1030.9 1020.0
01 12.06 С 1 н/о н/о +0.6 +0.1 96 -2 -2 1031.0 1020.1
02 12.06 С 2 н/о н/о +1.6 +0.6 93 -2 -2 1031.2 1020.5
03 12.06 С 1-3
{3}
н/о н/о +4.1 +1.3 82 +3 +3 1031.5 1020.8
04 12.06 СВ 3 н/о н/о +5.8 +1.0 71 +3 +3 1031.2 1020.6
05 12.06 СВ 4 н/о н/о +8.0 +0.9 61 +5 +5 1031.4 1020.9
06 12.06 В 4-6
{8}
н/о н/о +9.8 +0.1 51 +7 +7 1031.4 1021.0 +0.1 +9.8
07 12.06 В 4 н/о н/о +10.3 -1.3 44 +8 +8 1031.2 1020.7
08 12.06 В 3 н/о н/о +11.3 -2.2 39 +10 +10 1031.1 1020.7
09 12.06 СВ 4-7
{8}
н/о н/о +12.4 -1.1 39 +11 +11 1030.8 1020.5
10 12.06 СВ 2 н/о н/о +12.4 -2.5 35 +12 +12 1030.6 1020.2
11 12.06 СВ 3 н/о н/о +13.8 -0.6 37 +13 +13 1030.2 1019.9
12 12.06 СВ 3-6
{9}
н/о н/о +14.8 +0.7 38 +14 +14 1029.3 1019.0
13 12.06 В 4-5
{7}
н/о н/о +14.2 +0.4 39 +13 +13 1028.8 1018.5
14 12.06 В 3 н/о н/о +14.7 0.0 37 +14 +14 1028.3 1018.0
15 12.06 В 3-5
{7}
н/о н/о +14.7 -0.4 36 +14 +14 1028.0 1017.8
16 12.06 В 4-5
{6}
н/о н/о +14.8 +0.6 38 +14 +14 1027.7 1017.5
17 12.06 В 4-5
{6}
н/о н/о +14.5 +1.3 41 +13 +13 1027.2 1016.9
18 12.06 В 3-4
{5}
н/о н/о +13.5 +3.1 49 +13 +13 1027.4 1017.1 +9.5 +15.3
19 12.06 В 3 н/о н/о +12.5 +3.8 55 +11 +11 1027.3 1017.0
20 12.06 В 3-4
{4}
н/о н/о +10.9 +3.8 62 +9 +9 1027.3 1016.9
21 12.06 В 2-4
{6}
н/о н/о +8.5 +3.2 69 +7 +7 1027.5 1017.0
22 12.06 Ю 3 н/о н/о +8.1 +3.2 71 +6 +6 1027.6 1017.1
23 12.06 ЮВ 2 н/о н/о +7.1 +2.8 74 +5 +5 1027.6 1017.1
00 13.06 ЮВ 2-3
{3}
н/о н/о +6.5 +3.2 79 +4 +4 1027.6 1017.0
01 13.06 ЮВ 2-3
{4}
н/о н/о +6.0 +3.7 85 +4 +4 1027.4 1016.8
02 13.06 ЮВ 2-3
{4}
н/о н/о +6.6 +3.9 83 +4 +4 1027.2 1016.6
03 13.06 ЮВ 3-4
{4}
н/о н/о +9.0 +5.1 77 +7 +7 1026.5 1016.1
04 13.06 ЮВ 3 н/о н/о +11.1 +4.6 64 +9 +9 1026.1 1015.8
05 13.06 ЮВ 5-6
{8}
н/о н/о +11.3 +4.9 65 +9 +9 1026.1 1015.7
06 13.06 ЮВ 6-10
{10}
н/о н/о +12.1 +4.5 60 +10 +10 1025.5 1015.1 +6.0 +13.7
07 13.06 ЮВ 7-10
{11}
н/о н/о +13.0 +4.0 54 +11 +11 1025.1 1014.9
08 13.06 ЮВ 8-11
{11}
н/о н/о +13.8 +3.1 48 +12 +12 1024.7 1014.5
09 13.06 ЮВ 7-10
{11}
н/о н/о +13.9 +3.4 49 +12 +12 1024.5 1014.3
10 13.06 ЮВ 7 н/о н/о +13.6 +3.2 49 +11 +11 1024.6 1014.3
11 13.06 ЮВ 7 н/о н/о +13.5 +3.2 50 +11 +11 1024.1 1013.9
12 13.06 ЮВ 8-11
{11}
н/о н/о +13.8 +3.8 51 +11 +11 1023.7 1013.5
13 13.06 ЮВ 7 н/о н/о +14.8 +3.9 48 +13 +13 1023.0 1012.8
14 13.06 В 6-9
{10}
н/о н/о +14.4 +2.9 46 +13 +13 1022.1 1011.9
15 13.06 ЮВ 7-9
{9}
н/о н/о +13.4 +3.6 51 +11 +11 1021.7 1011.4
16 13.06 ЮВ 6 н/о н/о +13.3 +4.2 54 +11 +11 1021.3 1011.0
17 13.06 ЮВ 5-6
{9}
н/о н/о +13.1 +5.0 58 +11 +11 1021.2 1010.9
18 13.06 ЮВ 4-6
{7}
н/о н/о +12.6 +5.4 61 +11 +11 1021.2 1010.9 +12.1 +15.0
19 13.06 В 3 н/о н/о +12.2 +5.7 64 +11 +11 1021.0 1010.8
20 13.06 В 3 н/о н/о +11.9 +5.7 66 +10 +10 1020.9 1010.6
21 13.06 ЮВ 4-6
{6}
н/о н/о +11.7 +5.9 68 +10 +10 1021.0 1010.8
22 13.06 В 2 н/о н/о +11.6 +5.7 67 +11 +11 1020.5 1010.2
23 13.06 ЮВ 3-5
{5}
н/о н/о +11.3 +5.9 69 +10 +10 1020.2 1009.9
00 14.06 ЮВ 3-4
{6}
н/о н/о +11.1 +6.3 72 +9 +9 1019.3 1009.0
01 14.06 В 2 н/о н/о +11.1 +6.2 72 +10 +10 1019.4 1009.1
02 14.06 В 2 н/о н/о +11.0 +6.4 73 +10 +10 1019.5 1009.2
03 14.06 В 2-3
{3}
н/о н/о +12.5 +6.8 68 +12 +12 1018.9 1008.7
04 14.06 В 3 н/о н/о +12.8 +7.3 69 +12 +12 1018.7 1008.5
05 14.06 В 3-6
{6}
н/о н/о +14.6 +6.7 59 +14 +14 1018.5 1008.3
06 14.06 В 5-8
{9}
н/о н/о +15.5 +5.8 52 +14 +14 1018.3 1008.1 +10.9 +15.8
07 14.06 В 4-6
{7}
н/о н/о +17.0 +4.4 43 +17 +17 1018.2 1008.1
08 14.06 В 4 н/о н/о +18.0 +3.3 38 +18 +18 1017.9 1007.8
09 14.06 В 3-5
{6}
н/о н/о +19.2 +2.7 33 +20 +20 1017.5 1007.5
10 14.06 ЮВ 4 н/о н/о +19.8 +4.2 36 +20 +20 1017.2 1007.2
11 14.06 Ю 3 н/о н/о +20.5 +3.9 33 +21 +21 комфорт 1016.9 1006.9
12 14.06 ЮВ 3-5
{5}
н/о н/о +20.8 +5.8 38 +22 +22 комфорт 1016.6 1006.6
13 14.06 Ю 3-4
{6}
н/о н/о +20.8 +7.3 42 +22 +22 комфорт 1015.9 1006.0
14 14.06 ЮВ 2 н/о н/о +21.6 +8.5 43 +23 +23 комфорт 1015.4 1005.5
15 14.06 Ю 4-5
{6}
н/о н/о +21.1 +10.0 49 +23 +23 комфорт 1014.8 1004.9
16 14.06 Ю 4 н/о н/о +19.9 +11.0 56 +21 +21 комфорт 1014.7 1004.7
17 14.06 ЮЗ 4 н/о н/о +19.2 +11.0 59 +20 +20 1014.4 1004.4
18 14.06 ЮЗ 4-5
{6}
н/о н/о +17.9 +11.4 66 +18 +18 1014.1 1004.1 +15.5 +21.9
19 14.06 ЮЗ 3 н/о н/о +17.2 +11.5 69 +17 +17 1014.0 1004.0
20 14.06 ЮЗ 5 н/о н/о +15.7 +12.3 80 +15 +15 1014.1 1004.0
21 14.06 ЮЗ 3-4
{6}
н/о н/о +14.4 +12.4 88 +13 +13 1014.3 1004.2
22 14.06 ЮЗ 2-3
{4}
н/о н/о +13.9 +12.4 91 +13 +13 1014.3 1004.1
23 14.06 З 3 н/о н/о +13.8 +12.6 92 +13 +13 1014.5 1004.4
00 15.06 З 3-4
{7}
н/о н/о +12.1 +8.4 78 +11 +11 1014.5 1004.3
01 15.06 СЗ 2 н/о н/о +11.1 +6.1 71 +10 +10 1014.2 1003.9
02 15.06 З 2 н/о н/о +10.5 +6.0 74 +9 +9 1014.3 1004.1
03 15.06 СЗ 1-2
{4}
н/о н/о +10.4 +7.5 82 +10 +10 1014.9 1004.6
04 15.06 СЗ 2 н/о н/о +10.8 +8.2 84 +9 +9 1015.1 1004.8
05 15.06 З 2 н/о н/о +11.9 +8.6 80 +11 +11 1015.0 1004.8
06 15.06 СЗ 3-4
{5}
н/о н/о +15.2 +9.8 70 +15 +15 1014.8 1004.7 +10.2 +17.9
07 15.06 СЗ 4 н/о н/о +16.2 +9.3 64 +16 +16 1015.0 1005.0
08 15.06 СЗ 4 н/о н/о +17.0 +7.4 53 +17 +17 1015.2 1005.2
09 15.06 СЗ 4-5
{6}
н/о н/о +18.2 +10.9 62 +18 +18 1015.2 1005.2
10 15.06 СЗ 3-7
{7}
н/о н/о +18.7 +10.4 58 +19 +19 1015.3 1005.3
11 15.06 СЗ 4 н/о н/о +19.4 +9.9 54 +20 +20 1015.4 1005.5
12 15.06 СЗ 4-6
{8}
н/о н/о +19.4 +10.5 56 +20 +20 1015.6 1005.7
13 15.06 СЗ 5 н/о н/о +19.0 +10.2 57 +20 +20 1015.8 1005.8
14 15.06 СЗ 5-7
{8}
н/о н/о +19.2 +9.9 55 +20 +20 1015.6 1005.6
15 15.06 СЗ 5-7
{8}
н/о н/о +18.9 +7.3 47 +19 +19 1015.7 1005.7
16 15.06 СЗ 4 н/о н/о +18.8 +6.9 46 +19 +19 1015.7 1005.7
17 15.06 СЗ 4 н/о н/о +18.2 +5.2 42 +18 +18 1015.6 1005.6
18 15.06 СЗ 4-5
{6}
н/о н/о +16.6 +6.5 51 +16 +16 1015.7 1005.7 +15.2 +19.7
19 15.06 СЗ 2 н/о н/о +15.4 +8.1 62 +15 +15 1015.7 1005.6
20 15.06 СЗ 1 н/о н/о +13.7 +9.3 75 +14 +14 1015.7 1005.5
21 15.06 З 1-2
{2}
н/о н/о +10.7 +9.4 92 +10 +10 1015.8 1005.5
22 15.06 ЮЗ 1 н/о н/о +9.8 +8.7 93 +9 +9 1015.8 1005.5
23 15.06 ЮЗ 1-1
{3}
н/о н/о +8.9 +8.5 97 +8 +8 1015.9 1005.6
00 16.06 Ю 1-2
{2}
н/о н/о +7.1 +7.0 99 +6 +6 1015.6 1005.2
01 16.06 Ю 1 н/о н/о +6.8 +6.8 100 +6 +6 1015.3 1004.9
02 16.06 Ю 1 н/о н/о +8.1 +8.1 100 +7 +7 1015.2 1004.8
03 16.06 ЮЗ 4-5
{5}
н/о н/о +11.2 +10.3 94 +9 +9 1014.8 1004.5
04 16.06 З 3 н/о н/о +12.8 +10.9 88 +11 +11 1014.6 1004.4
05 16.06 З 5-6
{7}
н/о н/о +14.6 +10.4 76 +13 +13 1014.4 1004.3
06 16.06 ЮЗ 4-7
{8}
н/о н/о +17.5 +11.0 66 +17 +17 1014.1 1004.1 +6.4 +17.5
07 16.06 ЮЗ 6 н/о н/о +18.8 +11.2 61 +19 +19 1013.8 1003.8
08 16.06 З 5 н/о н/о +20.9 +10.3 51 +23 +23 комфорт 1013.3 1003.4
09 16.06 ЮЗ 5-7
{8}
н/о н/о +22.0 +10.0 46 +24 +24 комфорт 1012.9 1003.0
10 16.06 З 5 н/о н/о +22.7 +10.2 45 +25 +25 комфорт 1012.4 1002.6
11 16.06 ЮЗ 4 н/о н/о +23.1 +10.5 45 +25 +25 комфорт 1012.1 1002.3
12 16.06 З 4-7
{9}
н/о н/о +23.2 +11.4 47 +25 +25 комфорт 1011.8 1002.0
13 16.06 СЗ 4-7
{8}
н/о н/о +21.9 +13.9 60 +25 +25 комфорт 1011.7 1001.9
14 16.06 З 5 н/о н/о +22.9 +12.8 53 +26 +26 жарко 1011.5 1001.7
15 16.06 З 4-7
{8}
н/о н/о +23.1 +10.6 45 +25 +25 комфорт 1011.2 1001.3
16 16.06 З 4-6
{8}
н/о н/о +22.9 +10.6 46 +25 +25 комфорт 1011.2 1001.4
17 16.06 СЗ 4 н/о н/о +22.4 +10.0 45 +24 +24 комфорт 1011.0 1001.2
18 16.06 З 4-6
{6}
н/о н/о +21.3 +9.1 46 +23 +23 комфорт 1010.9 1001.0 +17.1 +24.2
19 16.06 З 3 н/о н/о +20.1 +9.1 49 +22 +22 комфорт 1011.0 1001.1
20 16.06 З 2-3
{5}
н/о н/о +17.0 +9.4 61 +17 +17 1011.1 1001.0
21 16.06 штиль 0
{2}
н/о н/о +12.9 +9.6 80 +12 +12 1011.3 1001.1
22 16.06 Ю 1 н/о н/о +11.9 +9.6 86 +12 +12 1011.2 1001.0
23 16.06 ЮЗ 2 н/о н/о +11.3 +9.8 90 +10 +10 1011.4 1001.2
00 17.06 Ю 2-3
{3}
н/о н/о +12.3 +10.0 86 +11 +11 1011.0 1000.9
01 17.06 Ю 1 н/о н/о +12.7 +10.8 88 +13 +13 1011.0 1000.8
02 17.06 Ю 3 н/о н/о +13.3 +10.8 85 +12 +12 1010.6 1000.4
03 17.06 Ю 3-5
{5}
н/о н/о +14.3 +10.1 76 +13 +13 1010.1 1000.0
04 17.06 Ю 2 н/о н/о +14.5 +10.3 76 +14 +14 1009.9 999.8
05 17.06 Ю 4-5
{6}
н/о н/о +14.8 +11.2 79 +14 +14 1009.7 999.6 0.1
06 17.06 Ю 3-5
{8}
н/о н/о +19.0 +12.6 66 +20 +20 1009.1 999.2 +11.0 +21.3 0.1
07 17.06 Ю 3 н/о н/о +18.3 +12.6 69 +19 +19 1009.1 999.1
08 17.06 Ю 4 н/о н/о +21.3 +13.1 59 +24 +24 комфорт 1008.7 998.8
09 17.06 Ю 5-7
{9}
н/о н/о +23.8 +13.5 52 +26 +26 жарко 1008.2 998.4
10 17.06 ЮЗ 6 н/о н/о +24.5 +12.9 48 +26 +26 жарко 1007.8 998.1
11 17.06 З 6 н/о н/о +24.3 +12.8 49 +26 +26 жарко 1008.0 998.2
12 17.06 З 7-11
{11}
н/о н/о +24.9 +9.6 38 +26 +26 жарко 1007.8 998.1
13 17.06 З 6 н/о н/о +25.4 +11.7 42 +27 +27 жарко 1007.5 997.8
14 17.06 З 6-9
{10}
н/о н/о +24.9 +11.1 42 +26 +26 жарко 1007.1 997.4
15 17.06 З 6-9
{12}
н/о н/о +22.9 +12.4 52 +26 +26 жарко 1007.4 997.7
16 17.06 З 3 н/о н/о +22.7 +12.2 51 +25 +25 комфорт 1007.0 997.3
17 17.06 З 4 н/о н/о +22.2 +13.5 58 +25 +25 комфорт 1007.0 997.2
18 17.06 СЗ 3-7
{7}
н/о н/о +20.9 +14.5 67 +24 +24 комфорт 1007.1 997.3 +18.0 +25.9
19 17.06 З 6 н/о н/о +19.8 +14.2 70 +21 +21 комфорт 1007.3 997.4
20 17.06 ЮЗ 5 н/о н/о +18.3 +13.8 75 +18 +18 1007.7 997.8

 

Местоположение метеостанции Лаитала (Финляндия): широта 63.82 долгота 24.16 высота над уровнем моря 83 м.

В архиве по умолчанию представлена погода в Лаитале за последнюю неделю. Архивные данные за месяц целиком и за предыдущие месяцы, начиная с января 2011 года, Вы можете получить, выбрав интересующий диапазон дат из раскрывающегося списка и нажав кнопку "Ввод!".


*Определитесь, кто Вы:
робот инопланетянин человек

Внимание! Время в таблицах - всемирное. Для получения местного времени необходимо прибавить поправку, которая равна 1 ч.

Смотрите также архив погоды в соседних городах и на ближайших метеорологических станциях:

Погода в Юливиеске (Финляндия) (37 км)
Погода в Пуроле (Финляндия) (43 км)
Погода в Кокколе (Финляндия) (51 км)
Погода в Круунупюу (Финляндия) (51 км)
Погода на Танкаре (Финляндия) (66 км)
Погода на Острове Улкокалла (Финляндия) (66 км)
Погода в Мустиккамаки (Финляндия) (71 км)
Погода в Пюхяярви (Финляндия) (77 км)
Погода на Острове Каллан (Финляндия) (81 км)
Погода в Алаярви Моксы (Финляндия) (81 км)

Пояснения к столбцам:

Ветер - указаны скорость ветра в м/с - средняя за 10 мин, порывы в срок и между сроками (в фигурных скобках) и направление, откуда дует ветер: С - северный, СВ - северо-восточный, В - восточный, ЮВ - юго-восточный, Ю - южный, ЮЗ - юго-западный, З - западный, СЗ - северо-западный.
Видимость - горизонтальная дальность видимости в метрах или километрах. При видимости от 1 до 10 км при отсутствии осадков обычно наблюдается дымка, при ухудшении видимости до 1 км и менее - туман. В сухую погоду видимость может ухудшаться дымом, пылью или мглою.
Явления - указаны атмосферные явления, наблюдавшиеся в срок или в последний час перед сроком; фигурными скобками обозначены явления, наблюдавшиеся между сроками (за 1-3 часа до срока); квадратными скобками обозначены град или гололедные отложения с указанием их диаметра в мм.
Облачность - указаны через наклонную черту общая и нижняя облачность в баллах и высота нижней границы облаков в метрах; квадратными скобками обозначены формы облаков: Ci - перистые, Cs - перисто-слоистые, Cc - перисто-кучевые, Ac - высококучевые, As - высокослоистые, Sc - слоисто-кучевые, Ns - слоисто-дождевые, Cu - кучевые, Cb - кучево-дождевые. Подробнее классификацию облаков см. в Атласе облаков (PDF).
T - Температура воздуха - температура, измеренная на высоте 2 м над землей.
Td - Температура точки росы - температура, при понижении до которой содержащийся в воздухе водяной пар достигнет насыщения.
f - Относительная влажность воздуха - влажноcть воздуха, измеренная на высоте 2 м над землей.
Te - Эффективная температура - температура, которую ощущает одетый по сезону человек в тени. Характеристика душности погоды. При расчете учитывается влияние влажности воздуха и скорости ветра на теплоощущения человека.
Tes - Эффективная температура на солнце - температура, которую ощущает человек, с поправкой на солнечный нагрев. Характеристика знойности погоды. Зависит от высоты солнца над горизонтом, облачности и скорости ветра. Ночью, в пасмурную погоду, а также при ветре 12 м/с и более поправка равна нулю.
P - Атмосферное давление - приведенное к уровню моря атмосферное давление.
Po - Атмосферное давление - измеренное на уровне метеостанции атмосферное давление.
Tmin - Минимальная температура - минимум температуры воздуха на высоте 2 м над землей.
Tmax - Максимальная температура - максимум температуры воздуха на высоте 2 м над землей.
R - Количество осадков - Количество выпавших осадков за период времени, мм. При наведении курсора мыши на число - период времени, за который выпало указанное количество осадков.
R24 - Количество осадков - Количество выпавших осадков за 24 часа, мм.
S - Снежный покров - Высота снежного покрова, см. При наведении курсора мыши на число - состояние снежного покрова и степень покрытия местности в баллах.